Wind_Speed
21 21 21 21 21 21 20 20 20 19 19 19 19 19 19 19 20 20 19 19 19 17 15 14 15 17 19 20 22 25 28 29 27 22 17 16 16 16 16 15 15 14 15 17 18 18 17 15 15 15 13 12 13 15 14 14 15 14 12 10 10 10
20 20 20 20 20 19 19 18 18 18 18 19 19 19 19 19 19 19 20 21 20 16 14 14 15 15 16 17 19 21 24 25 21 16 14 15 16 16 16 15 15 15 17 18 19 19 18 16 15 15 13 12 14 15 16 16 17 16 13 11 12 12
20 20 20 20 19 17 17 17 18 19 18 18 18 19 19 19 19 20 21 20 18 15 13 13 13 14 15 15 16 17 18 17 15 13 13 13 14 15 15 15 15 16 18 19 20 20 19 17 16 16 13 12 13 15 16 17 18 17 14 13 13 13
22 21 21 19 18 17 17 18 19 18 16 15 16 17 17 17 18 19 20 18 15 13 13 13 12 13 13 13 14 12 11 11 12 12 12 12 13 14 15 16 16 17 19 20 21 21 20 18 17 16 13 11 12 15 16 17 18 17 15 15 15 14
21 21 20 18 18 18 19 18 17 16 14 14 14 14 14 13 14 16 16 15 14 12 11 11 10 9 10 11 12 10 9 9 11 11 11 12 13 13 15 16 17 18 19 20 21 22 21 19 18 17 13 11 12 14 15 17 19 19 18 17 16 16
20 19 18 18 19 19 18 16 16 15 13 11 11 11 10 10 11 12 13 13 13 11 9 7 7 7 8 9 9 8 8 9 11 12 12 13 14 14 14 15 17 19 20 20 21 22 21 20 19 17 14 12 13 14 15 17 19 20 19 18 18 18
18 17 17 17 18 18 17 16 15 15 12 9 9 9 8 8 9 9 10 11 11 9 7 6 6 6 7 8 8 8 10 11 12 12 12 14 14 14 14 15 16 18 19 20 20 20 20 19 18 16 15 13 12 13 15 17 19 20 19 19 19 20
19 17 18 18 18 19 17 15 14 12 10 8 6 6 7 7 8 8 9 10 10 8 8 7 7 7 7 8 8 9 11 11 11 11 12 13 14 15 15 15 16 17 18 18 18 19 18 17 16 16 16 15 14 15 17 18 19 20 20 21 21 21
19 18 20 20 20 19 16 15 13 10 8 6 5 6 7 8 10 10 9 8 8 8 8 8 9 9 9 9 9 9 9 9 9 10 11 12 13 15 15 16 16 17 17 16 16 16 17 16 15 15 16 17 17 18 18 19 20 22 22 21 21 21
18 18 20 21 20 18 15 14 11 9 7 6 7 8 8 9 9 8 6 6 7 6 6 7 9 9 9 9 9 8 8 8 9 9 10 11 12 13 14 15 15 15 16 16 15 15 15 15 15 16 16 17 18 17 17 19 20 21 22 21 21 21
17 18 20 21 19 16 13 11 9 7 7 6 6 6 6 6 6 6 7 6 6 5 6 7 8 8 8 8 8 8 7 8 9 9 9 10 11 12 13 13 13 13 13 15 15 14 13 14 15 16 17 17 16 15 15 17 19 18 20 21 20 20
17 18 20 20 17 15 12 9 8 7 7 6 4 4 5 5 5 6 6 5 6 6 7 7 8 8 8 7 7 7 7 8 9 9 9 10 11 11 11 11 10 10 11 12 13 12 12 13 15 16 17 16 15 15 14 14 16 15 17 19 18 17
18 19 19 17 15 13 11 9 8 7 6 5 4 4 5 5 4 4 5 6 5 6 7 7 7 7 7 6 6 6 7 8 8 8 8 9 9 9 9 9 8 8 9 10 10 10 11 12 13 15 17 15 13 14 13 12 13 13 13 15 15 15
17 18 17 14 12 10 9 8 7 6 5 4 3 3 3 3 3 5 7 6 5 6 6 6 6 6 6 5 5 5 6 7 7 7 7 7 8 8 8 7 7 8 8 8 8 9 11 11 12 13 14 13 11 12 12 11 11 12 12 13 13 13
16 16 14 11 9 8 7 6 5 4 4 4 4 4 5 5 4 5 6 5 5 6 5 5 5 5 5 5 4 4 4 5 5 5 6 6 7 7 7 6 7 8 8 7 6 8 10 11 12 12 12 12 12 12 12 11 10 10 12 12 11 11
14 13 10 7 6 6 6 4 3 4 5 6 6 6 7 5 4 3 3 4 5 5 5 5 5 5 5 5 5 4 4 4 4 4 5 5 5 5 5 5 6 7 8 6 5 6 8 10 11 12 11 12 12 11 11 10 8 8 10 11 10 10
13 12 8 5 4 5 4 4 3 4 6 7 6 6 5 3 2 2 3 4 4 5 5 5 5 5 5 5 5 5 5 5 5 5 5 5 4 4 4 4 4 6 8 7 5 4 5 7 8 10 11 11 10 9 9 9 8 9 11 11 11 11
12 11 7 4 3 4 4 4 3 3 4 4 5 4 2 0 1 2 3 3 4 5 5 5 5 5 5 5 5 5 5 5 5 5 5 6 5 5 4 3 4 5 7 7 4 2 4 3 4 7 9 9 9 9 9 7 7 10 12 10 10 11
12 12 9 6 5 4 5 5 3 3 4 4 4 2 1 2 2 2 3 3 4 4 4 5 4 4 5 5 5 5 5 5 5 5 5 6 5 5 4 3 4 5 6 5 3 3 4 3 3 5 7 7 8 10 9 6 5 8 9 7 8 10
15 14 13 10 8 7 6 5 4 4 5 5 4 3 2 3 3 3 3 3 3 3 4 5 4 5 4 4 5 5 5 5 5 5 6 6 6 6 5 3 4 5 6 5 3 3 4 4 3 3 5 6 7 8 7 5 4 5 6 5 6 7
15 15 16 15 12 10 8 7 7 6 6 6 6 5 4 5 4 4 3 3 3 4 5 6 6 6 6 6 6 6 5 5 5 6 6 7 7 7 6 5 5 5 6 5 3 3 2 3 3 3 4 5 5 5 5 5 5 5 5 5 5 5
12 12 15 18 16 13 11 10 9 8 8 8 7 7 7 7 6 4 4 4 4 5 6 7 7 7 7 7 7 7 6 6 6 6 6 7 8 8 7 6 6 6 6 5 4 3 1 1 3 3 4 4 5 4 4 5 5 5 5 5 5 6
11 11 13 18 19 14 12 11 10 9 9 9 8 8 7 7 7 5 5 5 6 6 7 7 7 7 7 7 7 7 6 6 6 6 7 8 8 8 7 7 7 7 6 5 5 4 2 1 3 3 3 4 4 5 5 5 5 4 4 5 5 6
14 15 15 17 18 15 12 11 10 9 8 9 9 8 9 8 7 6 7 8 7 7 6 7 7 8 7 7 7 7 7 7 7 7 7 8 8 8 7 6 6 6 6 6 6 5 2 2 4 4 3 4 5 5 6 6 5 4 4 5 6 5
13 14 14 15 16 15 12 10 9 8 8 9 8 9 9 8 6 7 9 10 9 7 7 7 7 7 7 7 6 6 7 7 8 8 8 8 8 8 7 5 5 5 5 6 6 5 4 3 4 5 5 5 6 6 6 6 6 6 6 7 7 7
12 11 12 15 16 15 12 11 10 9 10 10 9 9 8 8 8 9 10 11 11 9 7 7 7 6 6 5 5 5 6 6 7 7 8 9 9 9 9 7 5 4 5 5 5 5 5 5 5 6 6 6 6 7 7 7 8 9 9 10 10 9
14 12 12 13 14 15 14 13 11 10 10 10 9 9 9 10 10 9 11 13 12 10 9 8 7 6 5 5 5 5 5 6 7 7 8 9 10 11 10 10 9 7 6 6 5 5 5 6 6 6 7 6 6 7 7 8 8 9 10 10 10 9
14 12 11 11 12 14 15 14 12 10 9 8 8 8 8 10 9 7 10 13 13 11 10 8 8 7 6 5 5 6 7 7 8 9 10 10 10 10 10 10 11 10 9 8 8 7 6 7 7 7 7 7 7 8 8 9 9 9 9 10 10 10
13 12 12 11 10 11 12 12 11 10 9 8 7 7 8 8 7 7 11 13 12 11 10 8 8 7 6 6 7 8 8 9 10 11 12 12 11 11 10 10 11 11 11 11 11 10 9 9 9 9 9 8 8 8 9 10 11 10 10 10 10 10
12 14 13 10 9 10 10 11 11 11 10 8 8 8 8 8 8 9 11 12 12 11 10 9 9 9 8 8 8 9 10 11 13 13 13 13 12 12 12 11 11 11 11 12 12 12 12 12 12 12 11 10 9 9 11 12 12 12 11 11 11 10
10 13 13 11 10 10 9 8 9 11 11 10 8 8 8 10 11 11 12 12 11 11 10 10 11 11 10 9 9 9 9 10 11 12 12 12 12 13 13 12 12 12 12 12 13 13 13 13 13 14 13 13 11 11 12 14 14 13 12 12 12 11
8 9 10 11 11 10 7 5 5 8 12 12 9 8 9 11 12 12 13 13 12 11 11 12 12 12 11 10 9 9 8 8 8 9 9 10 10 11 11 11 11 11 11 12 12 13 13 13 14 14 15 14 13 13 14 15 14 14 13 13 13 13
6 8 9 11 12 9 6 5 5 8 12 13 10 9 10 11 12 13 14 14 13 12 12 13 13 12 12 11 9 8 7 7 6 6 7 8 9 9 10 10 10 9 10 11 11 12 13 13 13 14 15 15 14 14 15 15 14 14 14 15 15 14
5 7 9 11 10 8 6 6 8 9 12 12 11 11 11 11 12 14 15 14 14 13 13 13 13 13 13 12 10 8 7 7 7 6 6 8 9 10 10 10 9 8 8 9 10 11 12 12 13 14 14 15 15 15 15 16 15 15 15 15 15 15
6 7 9 9 7 6 6 7 8 10 11 12 12 14 14 12 13 15 16 16 14 14 14 14 13 14 13 12 10 9 8 8 7 6 7 8 10 10 10 10 9 9 8 9 9 10 11 11 12 13 14 14 15 14 15 16 15 15 16 16 16 16
5 7 8 7 6 7 7 7 8 8 9 10 11 13 13 12 12 15 17 17 16 15 15 14 13 13 13 12 10 9 9 9 8 7 7 8 9 9 9 9 9 9 9 10 10 11 11 11 12 12 13 13 14 14 15 15 14 15 17 16 16 16
5 8 9 8 8 8 9 8 8 8 7 7 8 9 10 11 12 15 16 17 16 16 15 14 13 13 12 11 10 9 10 9 9 8 7 7 8 8 8 8 8 8 9 10 11 11 11 12 12 12 13 13 14 15 16 16 16 17 17 17 17 17
Wind_Direction
261 265 269 271 272 271 271 273 276 277 275 274 272 270 270 270 272 273 271 268 265 264 265 267 271 274 274 277 284 289 286 277 270 264 259 260 262 262 261 258 255 251 251 253 255 257 256 254 254 255 252 242 235 234 230 229 236 234 222 219 222 222
261 265 270 272 273 274 276 278 278 276 273 273 272 272 273 271 269 267 268 269 270 272 270 265 265 266 268 277 284 284 281 274 266 262 264 268 269 267 265 262 260 258 255 253 253 255 256 254 253 254 250 242 238 236 231 228 233 236 227 221 223 224
261 268 274 277 280 283 284 283 280 277 275 276 275 272 271 269 266 265 267 269 274 275 268 262 261 262 265 270 271 270 268 261 256 262 268 267 266 265 266 265 262 260 257 255 255 256 257 256 254 253 249 242 242 241 235 231 232 234 231 227 226 226
265 271 278 283 288 288 286 284 280 278 279 276 273 271 268 268 267 264 264 265 267 265 260 259 260 258 256 253 251 251 247 243 249 258 260 260 260 259 262 260 257 256 256 256 256 256 257 257 256 253 249 242 244 245 239 235 234 233 231 230 230 229
266 272 279 285 287 285 283 281 278 278 278 274 269 268 267 265 262 258 257 259 261 261 257 254 254 248 239 232 229 229 229 237 247 251 253 254 254 257 261 259 254 252 253 255 255 255 255 254 254 254 251 243 243 244 240 237 236 232 229 228 231 232
266 273 279 282 281 281 281 279 279 279 278 273 267 265 262 255 251 249 251 256 258 256 250 247 249 239 223 214 211 218 232 241 247 250 252 251 251 255 259 259 254 249 249 252 253 253 253 253 254 256 254 245 241 243 243 241 239 234 230 229 231 234
269 276 281 280 278 278 278 280 281 278 274 268 262 256 250 247 244 240 246 254 250 243 240 239 237 223 207 204 211 227 239 246 250 251 249 248 248 249 251 255 253 248 247 248 250 251 252 254 256 260 258 251 247 247 246 243 241 238 233 231 231 234
271 278 279 279 278 277 277 278 276 270 265 259 249 239 240 243 239 241 252 253 243 240 247 241 228 219 218 224 231 236 241 247 250 248 247 246 244 246 250 251 248 246 246 247 249 251 252 254 257 258 256 250 244 243 241 240 241 239 234 230 230 233
270 273 275 276 276 274 274 273 268 260 252 242 232 234 244 250 250 254 258 251 246 249 247 234 226 225 228 232 234 235 238 242 244 244 243 243 244 247 251 249 246 245 244 245 247 251 254 254 252 251 250 245 238 235 235 235 236 235 232 230 229 232
266 268 270 271 271 271 271 266 258 254 246 240 243 248 251 250 246 245 252 260 259 249 225 217 221 223 226 230 231 232 235 236 238 240 242 245 248 250 250 250 248 246 243 242 243 248 253 252 246 244 245 245 241 239 238 235 235 235 230 229 231 232
265 264 265 265 266 268 267 261 254 254 250 246 246 243 232 221 223 244 265 264 239 212 201 212 218 219 224 229 233 238 241 241 240 243 247 248 248 249 249 249 250 249 244 239 238 241 244 246 241 236 239 244 244 244 245 237 235 237 232 230 234 237
262 261 261 262 264 265 267 266 260 260 257 253 242 222 215 224 245 258 255 218 191 197 210 221 227 230 235 238 244 248 248 244 244 251 254 252 251 252 251 251 254 253 245 236 233 233 235 240 240 234 236 242 245 247 246 236 230 232 232 231 233 236
258 259 260 262 266 269 274 274 270 268 267 258 232 224 240 258 261 224 198 193 205 228 232 234 240 246 251 253 253 252 249 246 248 255 257 259 260 262 262 262 265 260 250 239 230 230 233 238 239 236 234 238 246 249 245 239 231 229 228 226 226 227
256 257 260 265 272 278 282 280 280 280 270 247 225 236 241 229 205 193 197 211 236 248 250 255 255 256 259 258 253 245 245 247 253 258 262 270 273 277 279 276 275 265 257 248 233 230 231 233 233 231 229 230 238 242 238 234 228 226 225 222 222 225
256 256 259 270 284 291 291 285 284 280 258 236 224 216 196 189 196 207 216 234 250 252 252 256 257 260 263 265 261 248 246 249 252 255 263 274 279 285 288 285 281 271 266 260 240 229 230 231 225 218 217 222 230 235 230 224 218 221 224 220 221 224
255 253 258 282 304 300 292 279 272 265 246 231 217 202 194 203 218 220 242 263 261 255 249 249 252 256 265 272 276 275 273 267 262 261 268 277 281 284 286 290 289 279 272 266 261 254 243 232 216 211 215 217 223 229 225 219 216 221 220 215 217 221
253 248 257 294 311 292 274 258 257 250 238 227 206 186 181 198 222 242 282 278 259 255 250 244 243 242 250 260 269 278 279 278 277 275 277 280 286 287 283 291 289 281 274 271 285 277 236 220 209 208 214 211 210 214 211 208 211 216 213 208 214 222
246 241 246 272 285 270 252 237 228 220 220 205 174 153 137 212 279 285 281 258 244 243 238 234 232 229 235 243 250 261 265 270 274 272 276 280 286 286 281 279 270 274 278 279 287 236 199 215 225 214 210 206 201 193 191 200 216 221 217 214 221 227
247 238 233 235 243 248 237 225 214 209 206 185 169 160 335 315 312 295 253 232 227 231 238 240 238 238 239 243 247 251 257 265 269 267 270 273 274 273 270 263 253 262 277 286 283 226 228 259 264 230 213 204 194 192 200 218 237 228 219 227 233 228
248 240 233 228 230 235 232 228 222 213 212 218 237 252 290 319 308 273 252 245 246 254 267 270 266 264 261 257 256 255 257 257 258 257 257 258 258 260 258 245 241 250 268 286 283 239 249 265 262 233 213 202 192 201 225 243 250 230 215 229 236 228
248 244 236 227 225 228 227 226 224 216 219 232 249 255 273 302 293 272 272 276 278 274 276 279 276 273 268 264 260 255 251 246 246 245 247 250 250 250 244 229 229 239 255 274 275 251 244 254 253 235 216 210 204 213 236 239 240 240 227 231 243 247
250 242 234 228 225 225 222 223 225 224 227 233 244 253 266 285 285 277 276 273 274 270 269 274 272 268 264 261 259 255 250 244 240 236 237 242 244 243 237 229 228 237 248 256 261 257 229 244 262 253 234 226 221 223 233 230 229 239 242 243 252 260
258 246 240 232 227 225 223 224 229 231 237 244 251 258 266 274 276 276 276 272 270 267 266 267 264 261 258 257 255 253 248 240 234 230 229 233 238 239 234 231 233 239 247 249 253 257 248 266 268 257 243 232 235 244 251 242 226 223 234 242 248 254
268 257 249 237 228 226 226 227 232 236 243 248 253 264 267 264 267 279 286 280 273 268 260 255 251 249 247 247 244 240 236 232 229 226 223 225 231 238 235 228 230 238 247 252 257 261 261 265 264 258 242 229 234 245 252 249 236 224 229 237 237 237
266 259 249 239 233 229 228 228 229 230 235 239 248 260 258 247 255 279 286 281 276 270 258 246 240 237 233 232 230 225 224 224 226 226 223 221 222 228 230 225 224 231 244 253 261 268 269 263 263 262 251 237 231 231 237 240 237 234 233 232 230 231
254 258 247 240 234 227 225 226 223 221 224 227 235 242 234 232 254 277 283 282 279 273 260 244 235 230 224 223 223 221 220 223 226 227 227 226 223 223 223 225 229 233 242 253 262 272 274 267 264 263 260 253 236 228 235 239 232 229 232 231 231 235
250 253 246 235 225 219 220 222 221 222 223 224 230 236 235 241 256 269 275 276 275 269 258 243 233 227 225 226 228 232 235 236 235 235 235 233 230 228 226 229 234 240 250 263 270 273 274 273 270 266 266 263 247 239 247 252 244 235 236 239 241 244
243 242 235 221 211 212 217 220 220 219 219 218 222 232 242 243 242 251 264 265 264 261 254 245 237 229 225 224 227 236 242 246 244 242 241 238 235 233 232 234 238 242 250 262 271 274 275 276 275 270 268 264 253 251 258 263 259 250 244 246 251 253
239 232 220 207 199 202 208 212 212 208 207 205 209 225 237 235 224 232 250 252 249 247 243 239 235 230 226 223 225 232 237 242 242 241 242 242 241 239 237 236 238 242 247 254 262 268 271 275 277 274 271 267 256 253 257 259 260 256 251 252 255 254
243 232 219 207 192 184 188 196 199 200 201 200 206 221 226 219 212 220 234 239 237 232 226 223 224 228 230 231 234 238 239 240 241 242 243 244 246 247 245 242 241 241 242 247 254 259 263 267 269 270 270 269 259 247 246 249 253 254 254 254 253 250
237 228 219 208 188 170 165 174 190 197 194 190 200 212 209 201 200 210 221 227 226 220 219 222 225 230 232 233 240 245 244 241 240 243 244 246 247 248 250 249 248 248 247 247 249 253 256 258 259 261 263 263 257 245 242 245 248 250 251 251 249 248
220 214 213 206 190 173 160 152 173 189 181 179 195 211 204 196 196 204 213 216 215 214 222 230 232 235 233 231 239 247 246 239 235 236 238 241 242 242 245 247 249 252 254 252 251 253 254 254 253 253 255 256 252 244 241 243 246 247 248 249 248 249
229 225 223 211 198 191 181 162 157 170 173 177 194 205 201 200 202 208 213 211 208 209 221 234 240 241 236 231 238 247 249 242 233 229 228 232 236 236 236 236 235 238 245 250 254 256 258 258 256 254 254 253 249 244 243 243 242 243 246 247 248 249
264 240 223 208 204 208 203 183 169 174 185 194 208 212 210 211 212 217 218 214 211 211 217 228 237 240 235 231 237 245 250 250 242 235 231 234 238 237 235 235 232 228 230 236 244 252 258 262 261 260 259 255 252 246 244 246 243 240 242 241 241 242
251 222 212 208 213 219 211 194 181 186 199 210 220 224 224 224 221 223 225 221 219 219 219 223 231 235 232 231 237 244 252 254 249 243 235 235 239 239 238 241 240 235 229 228 232 237 245 252 255 259 260 258 257 248 242 249 248 241 242 240 237 236
222 192 196 209 218 220 215 205 195 194 203 213 222 226 227 227 225 224 227 227 226 225 225 224 228 233 231 232 240 249 256 256 252 246 235 233 237 236 235 238 242 241 237 233 232 230 232 237 241 247 251 253 256 250 245 249 247 241 244 243 237 234
211 182 181 196 210 217 215 211 208 202 198 207 221 229 228 224 221 223 226 230 231 231 231 228 229 235 234 234 243 254 259 259 256 252 242 235 235 232 228 228 232 237 238 236 236 234 233 234 235 239 243 245 247 248 247 246 242 239 242 241 236 233
Height
5823 5823 5824 5824 5823 5824 5824 5824 5824 5824 5823 5822 5821 5821 5821 5821 5821 5821 5821 5820 5820 5820 5820 5821 5821 5821 5821 5821 5821 5821 5821 5821 5821 5822 5822 5821 5822 5822 5822 5822 5821 5821 5821 5820 5818 5818 5818 5820 5820 5821 5823 5825 5825 5826 5826 5826 5825 5826 5828 5829 5829 5830
5821 5822 5822 5822 5822 5823 5823 5823 5822 5821 5821 5820 5820 5819 5819 5819 5819 5819 5819 5819 5818 5819 5819 5818 5818 5818 5819 5819 5819 5819 5819 5819 5820 5821 5821 5821 5821 5820 5820 5820 5820 5820 5819 5818 5817 5816 5816 5817 5818 5819 5821 5823 5824 5824 5824 5825 5824 5824 5826 5828 5828 5828
5819 5820 5820 5821 5821 5821 5821 5820 5820 5819 5818 5818 5818 5818 5817 5817 5817 5817 5817 5817 5817 5817 5817 5816 5816 5816 5816 5816 5816 5816 5816 5817 5819 5819 5819 5819 5819 5818 5818 5818 5818 5818 5817 5817 5815 5814 5814 5815 5816 5817 5819 5821 5822 5822 5823 5823 5823 5823 5825 5826 5826 5827
5817 5818 5819 5819 5819 5819 5818 5818 5817 5817 5817 5816 5816 5815 5815 5815 5815 5815 5815 5816 5816 5815 5815 5815 5814 5814 5813 5814 5814 5814 5814 5815 5816 5817 5817 5817 5817 5817 5816 5816 5816 5815 5815 5814 5814 5813 5812 5813 5814 5815 5818 5820 5820 5821 5822 5822 5822 5822 5823 5824 5825 5826
5815 5816 5817 5817 5817 5816 5816 5815 5814 5814 5814 5813 5813 5813 5813 5813 5813 5813 5814 5814 5814 5814 5813 5813 5813 5812 5811 5811 5811 5812 5812 5813 5814 5814 5814 5814 5815 5814 5814 5813 5813 5813 5812 5812 5812 5811 5811 5811 5812 5813 5816 5818 5818 5819 5820 5821 5821 5821 5822 5822 5823 5824
5813 5814 5814 5814 5813 5813 5812 5812 5812 5812 5812 5811 5810 5811 5811 5812 5812 5812 5813 5813 5813 5813 5812 5812 5811 5810 5809 5809 5809 5810 5811 5811 5812 5812 5812 5812 5812 5812 5812 5811 5811 5810 5810 5809 5810 5810 5810 5810 5811 5812 5815 5816 5817 5818 5819 5819 5819 5819 5820 5821 5822 5822
5811 5812 5811 5811 5810 5809 5809 5809 5810 5810 5809 5809 5809 5809 5810 5810 5810 5811 5811 5811 5811 5811 5811 5810 5810 5809 5808 5808 5808 5809 5809 5809 5809 5810 5810 5810 5810 5809 5809 5809 5808 5808 5807 5808 5808 5809 5809 5809 5810 5811 5813 5814 5816 5817 5817 5818 5818 5818 5819 5820 5820 5820
5810 5810 5808 5808 5807 5806 5806 5807 5807 5808 5808 5807 5807 5808 5809 5809 5809 5810 5810 5810 5810 5810 5810 5809 5809 5808 5807 5807 5807 5807 5807 5807 5808 5808 5808 5808 5808 5807 5807 5807 5807 5806 5806 5807 5807 5808 5808 5809 5809 5810 5811 5812 5813 5813 5814 5815 5816 5817 5817 5817 5818 5819
5807 5807 5805 5805 5804 5803 5804 5805 5805 5806 5806 5806 5806 5807 5807 5808 5808 5808 5809 5809 5809 5809 5808 5807 5807 5807 5806 5806 5806 5806 5806 5806 5806 5806 5806 5806 5806 5805 5805 5805 5805 5805 5805 5806 5807 5807 5807 5807 5808 5808 5809 5809 5809 5810 5811 5813 5814 5814 5815 5816 5817 5817
5804 5804 5803 5802 5801 5801 5802 5803 5804 5804 5804 5805 5805 5806 5806 5807 5807 5808 5808 5808 5808 5808 5807 5806 5806 5806 5805 5805 5805 5805 5805 5805 5804 5804 5804 5804 5803 5803 5803 5803 5803 5803 5804 5805 5805 5805 5805 5805 5806 5807 5806 5806 5807 5808 5810 5812 5812 5812 5813 5814 5816 5816
5800 5801 5800 5799 5800 5800 5801 5802 5802 5803 5803 5804 5804 5805 5805 5806 5807 5807 5808 5808 5807 5807 5806 5806 5805 5805 5805 5804 5804 5804 5804 5804 5804 5803 5803 5802 5802 5802 5802 5802 5802 5802 5803 5803 5803 5804 5804 5804 5804 5805 5804 5804 5806 5808 5809 5810 5810 5811 5812 5813 5814 5815
5797 5798 5797 5797 5798 5799 5800 5801 5802 5802 5803 5803 5803 5804 5805 5805 5806 5807 5807 5807 5807 5806 5806 5805 5805 5805 5804 5804 5804 5804 5804 5804 5803 5803 5802 5802 5801 5801 5801 5801 5801 5802 5802 5802 5801 5802 5802 5802 5802 5802 5802 5803 5805 5806 5807 5807 5808 5809 5810 5811 5812 5813
5795 5795 5795 5796 5798 5799 5800 5801 5802 5802 5802 5802 5803 5803 5804 5804 5805 5806 5806 5806 5806 5805 5805 5805 5805 5805 5804 5804 5804 5804 5804 5803 5803 5803 5802 5802 5801 5800 5800 5800 5801 5801 5801 5801 5800 5800 5801 5801 5800 5800 5801 5802 5803 5804 5805 5806 5807 5807 5808 5809 5809 5810
5793 5794 5795 5796 5798 5799 5800 5801 5801 5802 5802 5802 5802 5802 5803 5804 5805 5805 5806 5806 5805 5805 5804 5804 5804 5804 5804 5804 5804 5804 5804 5803 5803 5803 5802 5802 5801 5800 5800 5800 5801 5801 5801 5800 5799 5799 5799 5799 5798 5799 5800 5801 5802 5803 5803 5804 5805 5805 5806 5807 5808 5808
5792 5794 5795 5797 5798 5799 5800 5800 5800 5800 5801 5801 5801 5801 5802 5803 5804 5805 5805 5805 5805 5804 5804 5804 5804 5804 5804 5804 5804 5804 5804 5803 5803 5802 5802 5801 5800 5800 5800 5800 5800 5800 5800 5799 5798 5798 5797 5797 5797 5797 5799 5800 5800 5801 5802 5803 5804 5805 5805 5806 5807 5807
5793 5794 5796 5797 5798 5798 5799 5799 5799 5799 5799 5800 5800 5801 5802 5802 5803 5804 5804 5804 5803 5803 5804 5804 5803 5804 5804 5804 5804 5804 5803 5803 5802 5801 5801 5800 5800 5800 5800 5800 5800 5799 5799 5798 5798 5798 5796 5796 5796 5796 5797 5799 5799 5800 5802 5803 5804 5804 5805 5805 5806 5806
5793 5794 5796 5797 5797 5797 5797 5797 5797 5797 5798 5798 5799 5799 5800 5801 5802 5802 5803 5803 5802 5802 5803 5803 5803 5803 5803 5804 5804 5803 5803 5802 5802 5801 5800 5800 5799 5799 5800 5800 5800 5799 5798 5798 5798 5797 5796 5795 5796 5796 5797 5797 5798 5799 5801 5802 5803 5803 5804 5804 5805 5805
5792 5794 5795 5796 5796 5796 5796 5796 5796 5796 5796 5797 5797 5798 5799 5800 5801 5801 5802 5802 5802 5802 5802 5802 5802 5802 5803 5803 5803 5802 5802 5802 5801 5800 5800 5799 5799 5799 5799 5799 5799 5798 5797 5797 5798 5797 5796 5795 5796 5796 5796 5796 5797 5798 5800 5801 5801 5802 5802 5803 5803 5804
5791 5793 5794 5794 5794 5794 5794 5794 5794 5794 5795 5796 5796 5797 5798 5799 5799 5800 5801 5801 5801 5801 5801 5801 5801 5801 5801 5801 5802 5801 5801 5801 5800 5800 5799 5798 5798 5798 5798 5799 5798 5797 5796 5796 5797 5797 5796 5796 5796 5795 5796 5796 5797 5798 5799 5800 5800 5801 5802 5802 5802 5803
5787 5790 5791 5791 5792 5792 5792 5792 5792 5793 5794 5795 5795 5796 5796 5797 5797 5798 5799 5800 5800 5800 5800 5800 5800 5800 5800 5800 5800 5800 5800 5800 5799 5799 5798 5798 5797 5797 5798 5798 5798 5797 5795 5795 5796 5796 5796 5796 5795 5795 5795 5796 5796 5797 5798 5799 5800 5800 5801 5801 5802 5802
5785 5787 5788 5789 5789 5789 5789 5790 5790 5791 5792 5793 5793 5794 5795 5796 5796 5797 5797 5797 5798 5798 5798 5798 5798 5798 5798 5798 5798 5799 5799 5798 5798 5798 5798 5797 5797 5797 5797 5797 5797 5796 5795 5794 5794 5795 5795 5795 5795 5795 5796 5796 5796 5797 5798 5798 5799 5799 5800 5801 5801 5801
5783 5784 5786 5786 5786 5786 5787 5788 5788 5789 5790 5791 5792 5793 5793 5794 5795 5795 5796 5796 5796 5796 5796 5796 5796 5797 5797 5797 5797 5797 5797 5797 5797 5797 5797 5796 5796 5796 5796 5796 5796 5795 5794 5793 5792 5793 5794 5795 5795 5795 5796 5796 5796 5796 5797 5798 5799 5799 5799 5800 5800 5800
5781 5783 5783 5783 5784 5785 5785 5786 5787 5787 5788 5789 5790 5791 5792 5793 5793 5794 5794 5794 5795 5795 5795 5795 5795 5795 5795 5795 5795 5796 5796 5796 5796 5796 5795 5795 5795 5795 5795 5795 5795 5794 5793 5792 5791 5791 5792 5793 5794 5794 5795 5795 5795 5795 5796 5797 5799 5799 5798 5798 5799 5800
5780 5780 5781 5781 5782 5783 5784 5785 5786 5786 5787 5788 5789 5789 5790 5791 5791 5792 5793 5793 5793 5794 5794 5794 5794 5794 5794 5794 5794 5794 5795 5795 5795 5795 5795 5794 5794 5794 5794 5794 5793 5793 5792 5791 5790 5790 5791 5792 5792 5793 5794 5794 5794 5794 5795 5796 5797 5797 5797 5797 5798 5799
5777 5777 5778 5779 5780 5782 5783 5784 5785 5785 5786 5787 5787 5788 5788 5789 5789 5790 5791 5791 5792 5792 5792 5792 5792 5792 5792 5792 5793 5793 5793 5794 5794 5794 5794 5794 5793 5793 5793 5793 5792 5791 5790 5789 5789 5789 5790 5791 5791 5792 5792 5794 5794 5794 5794 5795 5796 5796 5796 5797 5798 5799
5775 5775 5776 5777 5778 5780 5781 5782 5783 5784 5785 5785 5785 5786 5787 5787 5788 5788 5789 5790 5790 5790 5790 5790 5790 5790 5791 5791 5791 5792 5792 5792 5792 5793 5793 5792 5792 5792 5792 5791 5791 5790 5789 5788 5788 5788 5788 5790 5791 5791 5791 5792 5793 5793 5794 5795 5795 5795 5796 5797 5797 5798
5772 5773 5774 5775 5776 5778 5779 5780 5781 5782 5782 5783 5784 5784 5785 5786 5786 5787 5787 5788 5789 5789 5788 5788 5789 5789 5789 5789 5790 5790 5790 5791 5791 5791 5791 5791 5791 5791 5790 5790 5789 5789 5788 5787 5787 5787 5787 5788 5789 5790 5790 5791 5791 5792 5792 5793 5793 5794 5794 5795 5796 5796
5769 5770 5772 5773 5774 5775 5776 5777 5778 5779 5780 5781 5781 5782 5783 5784 5784 5785 5787 5788 5788 5788 5788 5787 5787 5787 5788 5788 5789 5789 5789 5789 5790 5790 5790 5790 5789 5789 5788 5788 5787 5787 5787 5786 5786 5786 5786 5786 5787 5788 5788 5789 5789 5790 5790 5790 5791 5791 5792 5793 5793 5793
5767 5768 5769 5770 5771 5772 5773 5774 5775 5776 5777 5778 5779 5779 5780 5781 5782 5784 5786 5787 5788 5788 5787 5787 5786 5786 5786 5787 5787 5788 5788 5788 5788 5789 5788 5788 5787 5787 5786 5786 5785 5785 5786 5785 5785 5784 5784 5785 5785 5785 5786 5787 5787 5788 5788 5788 5789 5790 5790 5791 5791 5792
5766 5766 5767 5768 5769 5769 5770 5771 5772 5773 5774 5775 5776 5777 5778 5779 5780 5782 5784 5785 5786 5787 5787 5787 5786 5785 5785 5785 5785 5786 5786 5786 5786 5786 5786 5786 5785 5785 5784 5784 5783 5783 5784 5784 5783 5783 5783 5783 5783 5783 5783 5784 5785 5786 5786 5786 5787 5788 5789 5789 5789 5790
5763 5764 5766 5766 5767 5768 5769 5770 5771 5771 5772 5774 5775 5775 5776 5777 5778 5780 5781 5783 5784 5786 5786 5786 5785 5784 5784 5783 5783 5783 5784 5784 5784 5784 5783 5783 5783 5783 5782 5781 5781 5781 5782 5782 5782 5782 5781 5781 5781 5781 5781 5782 5783 5784 5784 5785 5785 5786 5787 5787 5787 5788
5762 5763 5764 5765 5766 5767 5768 5768 5769 5769 5770 5772 5773 5774 5775 5775 5776 5777 5779 5780 5782 5784 5784 5784 5784 5783 5782 5782 5782 5781 5781 5782 5781 5781 5781 5781 5781 5781 5781 5780 5779 5779 5779 5780 5781 5780 5780 5780 5780 5780 5779 5780 5781 5782 5782 5783 5783 5784 5784 5785 5785 5786
5762 5763 5764 5764 5765 5765 5766 5767 5767 5768 5769 5770 5772 5773 5774 5774 5775 5776 5777 5778 5780 5781 5782 5782 5782 5782 5781 5781 5781 5781 5780 5780 5780 5779 5779 5779 5779 5780 5780 5779 5778 5777 5778 5778 5779 5779 5779 5779 5779 5778 5778 5778 5779 5780 5780 5780 5781 5782 5782 5783 5783 5784
5761 5762 5762 5763 5763 5764 5765 5765 5765 5766 5767 5769 5770 5771 5772 5773 5773 5774 5775 5776 5777 5778 5779 5779 5780 5780 5780 5780 5780 5780 5779 5779 5778 5778 5778 5778 5778 5778 5778 5778 5777 5777 5777 5777 5777 5778 5778 5778 5778 5777 5777 5776 5777 5778 5778 5778 5779 5780 5780 5781 5781 5782
5759 5760 5760 5761 5762 5762 5763 5763 5764 5765 5766 5767 5768 5769 5770 5771 5771 5772 5773 5774 5775 5776 5777 5777 5777 5777 5778 5778 5778 5778 5778 5777 5777 5777 5777 5777 5777 5778 5778 5777 5777 5777 5777 5776 5776 5776 5777 5777 5777 5777 5776 5776 5776 5777 5777 5777 5778 5778 5779 5779 5780 5781
5757 5758 5759 5759 5760 5761 5762 5763 5763 5764 5765 5766 5766 5767 5768 5768 5769 5770 5770 5771 5773 5774 5774 5775 5775 5775 5775 5776 5776 5776 5776 5776 5776 5776 5776 5776 5776 5776 5777 5777 5776 5776 5776 5776 5776 5776 5776 5776 5776 5776 5776 5775 5775 5776 5776 5776 5777 5777 5777 5778 5779 5779
5756 5757 5757 5758 5759 5760 5762 5763 5763 5764 5764 5764 5765 5765 5765 5766 5766 5767 5768 5769 5771 5772 5772 5773 5773 5773 5773 5773 5774 5774 5775 5774 5774 5774 5774 5774 5774 5775 5775 5775 5775 5775 5776 5775 5775 5775 5775 5775 5775 5775 5775 5775 5775 5775 5775 5775 5775 5776 5776 5776 5777 5777